  Satellite: FO-29
 Catalog number: 24278
 Epoch time:      00186.20517384
 Element set:     341
 Inclination:       98.5876 deg
 RA of node:        91.8282 deg
 Eccentricity:    0.0351001
 Arg of perigee:   182.8276 deg
 Mean anomaly:     177.0883 deg
 Mean motion:   13.52726777 rev/day
 Decay rate:        1.8e-07 rev/day^2
 Epoch rev:           19159
 Checksum:              330

-------------------  FO-29(JAS-2)のテレメトリに関する情報  ----------------------
 
 2)7月9日(日)のテレメトリの最後の行の変換例です.

  AS19226C1  9Sun2000
 11:07-11:25(JST)
 Freq.435.804-.787MHz
 
 HI HI AE C7 88 55 1D 57 1A 0D 01 76 2B 5D 7F 60 93 91 B0 90 BB B9 BA BA B9 
  
 テレメトリ  	内   容	    	換算値	単 位  
 3C	磁気センサーZ軸=	21078.4	[nT]
 3D	磁気センサX軸	=	45588.2	[nT]
 4A	太陽電池発生電流 =	 1245.1	[mA]
 4B	B充放電電流	=	 -118.4	[mA]
 4C	B端子電圧	=	   15.8	[V]
 4D	B中間端子電圧	=	    7.0	[V]
 5A	バス電圧	     =	   17.3	[V]
 5B	JTA送信電力	=	  837.9	[mW]
 5C 	構体温度1	=	    9.3	[℃]
 5D	構体温度2	=	   10.0	[℃]
 6A	構体温度3	=	    9.6	[℃]
 6B	構体温度4	=	    9.6	[℃]
 6C	Bセル温度	=	   10.0	[℃]
 
 * OSはWindows 2000,Office 2000 にて計算処理.
 
 ===========================  FO-29(ふじ3号)のQSO情報等 ======================
   
 3) [jamsat-bb:5405] QSO via FO-29 aginにおいて JI1IZR局の 眞田 正弘氏と
   [jamsat-bb:5407] Re:QSO via FO-29 aginにおいて7K4IIN局の中島 昌一氏が投稿されて
   ましたので転載させて頂きました.
  
YRF02414> Subject: [jamsat-bb:5405] QSO via FO-29 agin
YRF02414> Date: Sat, 1 Jul 2000 23:02:19 +0900
YRF02414> 7k4iin/中島さま
YRF02414> メーリングリストではお世話になっています。
YRF02414> 本日の再度のQSOありがとうございました。
YRF02414> やはり、普通の八木アンテナでは、QSBが
YRF02414> 激しくて衛星でのQSOは難しい様です。
YRF02414> また、ドップラーシフト及び追尾も結構難しく
YRF02414> 時々信号を見失ってしまいがちです。
YRF02414> でも、なんとか頑張りたいと思います。
YRF02414> しだいに、いい設備が欲しくなりますね。
YRF02414> 皆様がどのような設備なのか統計を取って
YRF02414> 見たいものです。
YRF02414> 
YRF02414> 2000年7月1日(土)
YRF02414> 眞田正弘
YRF02414> ji1izr 神奈川県平塚市
YRF02414> ji1izr@jamsat.or.jp

jim> Subject: [jamsat-bb:5407] Re: QSO via FO-29 agin

jim> 以前より単一偏波を使っていますが、
jim> できるだけコンパクトな衛星アンテナにするには、
jim> 円偏波で+3dBを得たいと考えています.
jim> 
jim> 気象衛星受信用では右旋回が多いようですが、
jim> アマチュア衛星には左右どちら旋回が良いのでしょう?
jim> 
jim> まずは435MHz用ターンスタイルアンテナの試作から
jim> 挑戦していますが、??が多くて進捗しません.
jim> 
jim> FO-29でのQSOについて、ji1izr/眞田正弘 wrote:>>
jim> > やはり、普通の八木アンテナでは、QSBが
jim> > 激しくて衛星でのQSOは難しい様です。
jim> 
jim> 偏波が原因なんでしょうか?
jim> 
jim> > また、ドップラーシフト及び追尾も結構難しく
jim> > 時々信号を見失ってしまいがちです。
jim> 
jim> 受信能力が低いと苦労しますね.
jim> 
jim> > しだいに、いい設備が欲しくなりますね。
jim> いい設備にもいろいろ個性があるので、
jim> 私はコンパクトで目立たない高性能を作りたいです.
jim> 
jim> -- 
jim>   -`` `  --``` -`- ````- `` `` -`  with Mac PowerBook 2400/G3
jim> de 7K4iiN ; Inside Island Network
jim> Shoichi  中島 昌一 Nakashima, E-mail; jim@jsdi.or.jp
jim> 7k4iin@jamsat.or.jp, URL;http://www.jsdi.or.jp/~tina88/7k4iin/
jim>   TKS es CUAGN ----  ........ --... ...--  - ..- ...-.-
   
 ===============================================================================
   4)JARL のホームページに運用予定が記載されていましたのでご紹介します.
       ( http://www.jarl.or.jp/Japanese/3_Fuji/new/uy.htm )

        ■ ふじ3号/FOー29/JAS-2 ■  
   
     *** 運用予定について *** 

 ☆☆ デジトーカ運用を7月から運用 ☆☆
  
  7月10日 〜 7月19日アナログ系運用 

 ※7月20日 〜 8月31日 デジトーカ運用

  ※ 7月20日から8月まで,新音声データによるデジトーカ運用を
    行いますので,ご期待ください。
  なお,デジトー カ運用期間中,毎週水曜日に衛星の運用管理を行うため,
  アナログ系運用を実施致します。
  但し,混信等の影響により切り替えることができない場合は,
  デジトーカ運用を連続的に行うこうともありますので,予めご了承願います。 

 最新の情報はテレホンサービス(03−3942−1000)をお聞きください。  
 以後の運用につきましては8月下旬にお知らせいたします。
  7月9日のJAS-2情報175では7月2日までのアナログ運用がありと運用の変更あり
 とのことでした。

-----------------------    FO−20(JAS-1b)道要素   -------------------------
  5)
  ■ 軌道要素1 :出典はFO-29「ふじ3号」に同じ.
  
  FO-20
 1 20480U 90013C   00185.36390643 -.00000051  00000-0 -42805-4 0  2371
 2 20480  99.0557 312.7376 0540980  18.6802 343.3337 12.83274396487359
 
  ■ 軌道要素2 :出典はFO−29「ふじ3号」に同じ.
               
  Satellite: FO-20
 Catalog number: 20480
 Epoch time:      00185.36390643
 Element set:     237
 Inclination:       99.0557 deg
 RA of node:       312.7376 deg
 Eccentricity:    0.0540980
 Arg of perigee:    18.6802 deg
 Mean anomaly:     343.3337 deg
 Mean motion:   12.83274396 rev/day
 Decay rate:       -5.1e-07 rev/day^2
 Epoch rev:           48735
 Checksum:              307

 --------------------------------------------------------------------------------
 
         ■ ふじ2号/FO−20/JAS-1b ■      
            
          「ふじ2号」 現況                                                                                  
             
   JAS-1b(ふじ2号)のCWテレメトリ信号に,1997年10月12日12時(JST)の
 日本上空通過時,3桁の数字が繰り返されるはずが3個の長音の繰り返しとなっているという
 異常が発見されました。この不具合は次の通過時からは回復していましたが13日15時20分の
 通過時に再び観測されました。現在はA0の送信が続いています。衛星のアナログ系中継モード
 動作は異常が無く,正常時のテレメトリ内容からは衛星の動作に異常は認められません。従って,
 直ちに衛星のミッションに影響することは無いと予想されますので,当面はアナログ系中継
 モードを継続します。衛星は既に打ち上げてから7年8ヶ月を経ておりますので,今後は監視を
 強化する予定です。アマチュア各位のレポートをお待ちします。
 -------------------------------------------------------------------------------- 
  1997年10月14日 00時35分 確認のテレメトリ音 151 KB (A0) 
  1997年10月14日 11時10分 確認のテレメトリ音 216 KB (異常キーイング) 

  以上 JARLのホ−ムページの http://www.jarl.or.jp/Japanese/3_Fuji/new/fuji.htm

===================== FO-20 ふじ2号 のテレメトリ観測結果 ====================

   6月3日(土)の14:15(JST)のパスの観測結果では以前観測した結果よりも変動のない
 単一周波数でドップラー効果で周波数がずれていくのみの状態に戻っておりました。
                                         
   =============   JAS-2 (ふじ3号)と現在までの情報   ===========
  
  A.電話によるふじ3号の運用情報
      社団法人日本アマチュア連盟によるサービス
           TEL .   03− 3942 − 1000
  B.アマチュア無線FAXサービス
      JARLによるふじ3号の軌道情報(オービットカレンダー)
         FAX No.  03− 3233 −0055
  C.WWWブラウザで情報を簡単に見れる人のためにJAS−2
     ふじ3号の衛星としての運用されるまでの名前)の概要、打ち上げ
     までの状況、運用中における状況を説明したホームページを紹介し
     ておきます.
     社団法人日本アマチュア無線連盟(JARL)のホームページ

          http://www.jarl.or.jp/Japanese/3_Fuji/jasmenu.htm
 
     宇宙開発事業団(NASDA)ホームページ 
          http://www.nasda.go.jp/
         打上げ衛星 :地球観測プラットフォーム技術衛星(ADEOS) 
                       アマチュア衛星3号(JAS-2)
          http://yyy.tksc.nasda.go.jp/Home/Press/Press-j/jas-2_j.html        

  D.JAMSATによる軌道情報の活用
        JAMSATのホームページまたはjamsat−kepsの軌道要素より
      衛星の軌道情報を得る.
     JAMSATホームページ
               URL    http://www.jamsat.or.jp
       上記ホームページでは各地で行われるアマチュア通信衛星に関する
      ミューティングのお知らせや世界のアマチュア衛星に関する情報が
      満載されています.
 ========================================================================  
     JAMSATのメンバーのご協力によりJH6MME(高山 秀造)が
    執筆・編集を担当しております.ご指摘の意見、疑問やこのようにしたら
    というアイデアがありましたら小さなことでもかまいませんので気軽に下
    記アドレスまでご連絡ください.jamsat−newsからjas2
    infoへの転載をJH4PHW局坂井さんに担当して頂いております.  
                  E-mail : jh6mme@jamsat.or.jp : jh4phw@jamsat.or.jp
 ===============================   END  ===============================